When you browse on this site, cookies collect data to enhance your experience and personalize the content and advertising you see.
Visit our Privacy Policy to learn more. By continuing to use the site, you agree to this use of cookies and data.
  • In Hungary
  • List of Countries
  • For 7 days
  • Water Temperature
  • Weather Map
  • News
  • Weather Widgets
  • user-avatar
    Login

    Hourly Weather Toporow

    Today, 23 February, Sunday

    Time Temperature Precipitation Wind Pressure Humidity
    00:00 +5°C° 0 mm 9 mps 743 mmHg 62%
    01:00 +5°C° 0 mm 9 mps 743 mmHg 65%
    02:00 +5°C° 0 mm 8 mps 742 mmHg 66%
    03:00 +5°C° 0.3 mm 8 mps 742 mmHg 68%
    04:00 +4°C° 0.3 mm 8 mps 742 mmHg 71%
    05:00 +4°C° 0.3 mm 8 mps 742 mmHg 73%
    06:00 +4°C° 0.1 mm 8 mps 742 mmHg 73%
    07:00 +2°C° 0.1 mm 8 mps 742 mmHg 73%
    08:00 +2°C° 0.1 mm 8 mps 742 mmHg 73%
    09:00 +2°C° 0 mm 8 mps 742 mmHg 69%
    10:00 +3°C° 0 mm 9 mps 742 mmHg 66%
    11:00 +3°C° 0 mm 9 mps 742 mmHg 63%
    12:00 +5°C° 0.1 mm 9 mps 742 mmHg 61%
    13:00 +5°C° 0.1 mm 9 mps 741 mmHg 59%
    14:00 +5°C° 0.1 mm 9 mps 741 mmHg 57%
    15:00 +4°C° 0.1 mm 8 mps 740 mmHg 66%
    16:00 +2°C° 0.1 mm 8 mps 739 mmHg 74%
    17:00 +2°C° 0.1 mm 8 mps 738 mmHg 83%
    18:00 +2°C° 0.6 mm 6 mps 737 mmHg 86%
    19:00 +2°C° 0.6 mm 5 mps 736 mmHg 90%
    20:00 +3°C° 0.6 mm 3 mps 734 mmHg 94%
    21:00 +3°C° 1.1 mm 3 mps 733 mmHg 95%
    22:00 +4°C° 1.1 mm 2 mps 732 mmHg 95%
    23:00 +3°C° 1.1 mm 2 mps 730 mmHg 96%

    Tomorrow, 24 February, Monday

    Time Temperature Precipitation Wind Pressure Humidity
    00:00 +2°C° 1.2 mm 3 mps 731 mmHg 96%
    01:00 +1°C° 1.2 mm 4 mps 731 mmHg 96%
    02:00 +1°C° 1.2 mm 6 mps 732 mmHg 95%
    03:00 0°C° 0.7 mm 7 mps 733 mmHg 91%
    04:00 0°C° 0.7 mm 8 mps 735 mmHg 87%
    05:00 0°C° 0.7 mm 10 mps 736 mmHg 83%
    06:00 0°C° 0 mm 9 mps 737 mmHg 80%
    07:00 0°C° 0 mm 9 mps 738 mmHg 77%
    08:00 0°C° 0 mm 9 mps 739 mmHg 73%
    09:00 0°C° 0.2 mm 9 mps 740 mmHg 77%
    10:00 0°C° 0.2 mm 9 mps 741 mmHg 82%
    11:00 0°C° 0.2 mm 9 mps 741 mmHg 86%
    12:00 +1°C° 0 mm 9 mps 742 mmHg 75%
    13:00 +3°C° 0 mm 9 mps 743 mmHg 64%
    14:00 +5°C° 0 mm 9 mps 743 mmHg 53%
    15:00 +4°C° 0 mm 7 mps 744 mmHg 55%
    16:00 +4°C° 0 mm 6 mps 744 mmHg 57%
    17:00 +5°C° 0 mm 5 mps 744 mmHg 59%
    18:00 +3°C° 0 mm 5 mps 744 mmHg 64%
    19:00 +2°C° 0 mm 5 mps 744 mmHg 68%
    20:00 +1°C° 0 mm 4 mps 744 mmHg 73%
    21:00 +1°C° 0 mm 4 mps 744 mmHg 76%
    22:00 +1°C° 0 mm 4 mps 744 mmHg 78%
    23:00 +1°C° 0 mm 4 mps 743 mmHg 81%

    Day after tomorrow, 25 February, Tuesday

    Time Temperature Precipitation Wind Pressure Humidity
    00:00 +1°C° 0 mm 4 mps 743 mmHg 81%
    01:00 +1°C° 0 mm 4 mps 742 mmHg 80%
    02:00 +1°C° 0 mm 4 mps 741 mmHg 80%
    03:00 0°C° 0.4 mm 5 mps 740 mmHg 85%
    04:00 -1°C° 0.4 mm 5 mps 739 mmHg 91%
    05:00 -2°C° 0.4 mm 6 mps 737 mmHg 96%
    06:00 -2°C° 1.3 mm 6 mps 736 mmHg 95%
    07:00 -1°C° 1.3 mm 6 mps 735 mmHg 95%
    08:00 -1°C° 1.3 mm 6 mps 734 mmHg 94%
    09:00 +2°C° 0.6 mm 7 mps 734 mmHg 93%
    10:00 +3°C° 0.6 mm 7 mps 733 mmHg 92%
    11:00 +5°C° 0.6 mm 7 mps 733 mmHg 91%
    12:00 +5°C° 0.1 mm 7 mps 733 mmHg 87%
    13:00 +6°C° 0.1 mm 7 mps 733 mmHg 82%
    14:00 +8°C° 0.1 mm 7 mps 733 mmHg 78%
    15:00 +8°C° 0.1 mm 6 mps 733 mmHg 77%
    16:00 +7°C° 0.1 mm 6 mps 732 mmHg 76%
    17:00 +7°C° 0.1 mm 5 mps 732 mmHg 75%
    18:00 +7°C° 0.2 mm 4 mps 732 mmHg 78%
    19:00 +6°C° 0.2 mm 4 mps 732 mmHg 81%
    20:00 +5°C° 0.2 mm 4 mps 732 mmHg 84%
    21:00 +5°C° 0.2 mm 4 mps 732 mmHg 80%
    22:00 +4°C° 0.2 mm 4 mps 733 mmHg 76%
    23:00 +3°C° 0.2 mm 5 mps 733 mmHg 73%

    26 February, Wednesday

    Time Temperature Precipitation Wind Pressure Humidity
    00:00 +3°C° 0 mm 5 mps 733 mmHg 72%
    01:00 +2°C° 0 mm 5 mps 733 mmHg 72%
    02:00 +1°C° 0 mm 5 mps 733 mmHg 72%
    03:00 +1°C° 0 mm 5 mps 733 mmHg 73%
    04:00 0°C° 0 mm 4 mps 733 mmHg 74%
    05:00 0°C° 0 mm 4 mps 732 mmHg 76%
    06:00 0°C° 0 mm 4 mps 732 mmHg 76%
    07:00 0°C° 0 mm 4 mps 732 mmHg 76%
    08:00 0°C° 0 mm 5 mps 732 mmHg 77%
    09:00 +1°C° 0 mm 5 mps 732 mmHg 72%
    10:00 +2°C° 0 mm 5 mps 732 mmHg 66%
    11:00 +3°C° 0 mm 6 mps 732 mmHg 61%
    12:00 +5°C° 0 mm 5 mps 732 mmHg 57%
    13:00 +5°C° 0 mm 5 mps 732 mmHg 54%
    14:00 +6°C° 0 mm 4 mps 731 mmHg 50%
    15:00 +6°C° 0 mm 4 mps 731 mmHg 53%
    16:00 +7°C° 0 mm 3 mps 731 mmHg 56%
    17:00 +7°C° 0 mm 2 mps 731 mmHg 59%
    18:00 +5°C° 0 mm 3 mps 731 mmHg 62%
    19:00 +4°C° 0 mm 3 mps 731 mmHg 66%
    20:00 +3°C° 0 mm 3 mps 732 mmHg 70%
    21:00 +3°C° 0 mm 3 mps 732 mmHg 72%
    22:00 +3°C° 0 mm 3 mps 732 mmHg 74%
    23:00 +3°C° 0 mm 3 mps 732 mmHg 76%

    27 February, Thursday

    Time Temperature Precipitation Wind Pressure Humidity
    00:00 +2°C° 0.1 mm 3 mps 733 mmHg 78%
    01:00 +3°C° 0.1 mm 2 mps 733 mmHg 81%
    02:00 +3°C° 0.1 mm 2 mps 733 mmHg 83%
    03:00 +2°C° 0 mm 2 mps 733 mmHg 84%
    04:00 +1°C° 0 mm 3 mps 733 mmHg 84%
    05:00 +1°C° 0 mm 3 mps 733 mmHg 84%
    06:00 0°C° 0 mm 4 mps 734 mmHg 86%
    07:00 -1°C° 0 mm 4 mps 734 mmHg 87%
    08:00 -1°C° 0 mm 5 mps 734 mmHg 89%
    09:00 0°C° 0 mm 5 mps 735 mmHg 87%
    10:00 0°C° 0 mm 5 mps 735 mmHg 84%
    11:00 0°C° 0 mm 5 mps 736 mmHg 81%
    12:00 +1°C° 0 mm 5 mps 736 mmHg 76%
    13:00 +1°C° 0.1 mm 5 mps 736 mmHg 70%
    14:00 +2°C° 0.1 mm 5 mps 736 mmHg 64%
    15:00 +1°C° 0 mm 5 mps 737 mmHg 64%
    16:00 +1°C° 0 mm 5 mps 737 mmHg 64%
    17:00 +1°C° 0 mm 5 mps 737 mmHg 64%
    18:00 0°C° 0 mm 4 mps 737 mmHg 69%
    19:00 0°C° 0 mm 3 mps 738 mmHg 75%
    20:00 -1°C° 0 mm 3 mps 738 mmHg 80%
    21:00 -1°C° 0 mm 2 mps 738 mmHg 81%
    22:00 -1°C° 0 mm 2 mps 738 mmHg 82%
    23:00 -1°C° 0 mm 2 mps 738 mmHg 83%

    28 February, Friday

    Time Temperature Precipitation Wind Pressure Humidity
    00:00 -1°C° 0 mm 2 mps 738 mmHg 83%
    01:00 -1°C° 0 mm 2 mps 738 mmHg 83%
    02:00 -1°C° 0 mm 2 mps 738 mmHg 83%
    03:00 -1°C° 0 mm 3 mps 737 mmHg 84%
    04:00 -1°C° 0 mm 3 mps 737 mmHg 84%
    05:00 -1°C° 0 mm 3 mps 736 mmHg 85%
    06:00 -2°C° 0 mm 4 mps 735 mmHg 82%
    07:00 -2°C° 0 mm 5 mps 735 mmHg 79%
    08:00 -3°C° 0 mm 6 mps 734 mmHg 76%
    09:00 -2°C° 0 mm 7 mps 733 mmHg 72%
    10:00 -1°C° 0 mm 8 mps 733 mmHg 68%
    11:00 0°C° 0 mm 9 mps 732 mmHg 64%
    12:00 0°C° 0.6 mm 9 mps 732 mmHg 72%
    13:00 0°C° 0.6 mm 8 mps 731 mmHg 80%
    14:00 0°C° 0.6 mm 7 mps 731 mmHg 89%
    15:00 0°C° 0.1 mm 7 mps 731 mmHg 80%
    16:00 +2°C° 0.1 mm 7 mps 731 mmHg 71%
    17:00 +2°C° 0.1 mm 7 mps 731 mmHg 63%
    18:00 0°C° 0.1 mm 8 mps 731 mmHg 71%
    19:00 0°C° 0.1 mm 9 mps 731 mmHg 80%
    20:00 -2°C° 0.1 mm 10 mps 731 mmHg 89%
    21:00 -1°C° 0.1 mm 9 mps 732 mmHg 90%
    22:00 -3°C° 0.1 mm 9 mps 733 mmHg 91%
    23:00 -2°C° 0.1 mm 8 mps 734 mmHg 92%
    Show more